Flag for Canada Weather past 2 weeks in Montreal, Quebec, Canada

Now
32 °F

Light snow. Ice fog.


Feels Like: 26 °F
Forecast: 27 / 34 °F
Wind: 7 mph from Northwest

Location: Montreal - Pierre Elliot Trudeau International Aiport

Current Time: Dec 18, 2014 at 11:59:48 AM

Latest Report: Dec 18, 2014 at 11:00 AM


Visibility: 5 mi

Pressure: 29.87 "Hg

Humidity: 93%

Dew point: 30 °F

Location of MontrealLocation

Historic Weather in Montreal — Graph

°F

Montreal temperature yesterday

Maximum temperature yesterday: 34 °F (at 12:00 AM)
Minimum temperature yesterday: 32 °F (at 2:00 AM)
Average temperature yesterday: 32 °F

Past Weeks' High & Low Weather Summary

 TemperatureHumidityPressure
High37 °F (Dec 3, 11:00 AM)100% (Dec 3, 5:00 PM)30.84 "Hg (Dec 3, 5:00 PM)
Low9 °F (Dec 5, 6:00 AM)41% (Dec 7, 4:00 PM)29.55 "Hg (Dec 11, 5:00 AM)
Average26 °F83%30.10 "Hg
* Reported Dec 3 11:00 AM — Dec 18 11:00 AM, Montreal, Weather by CustomWeather, © 2014

Note: Actual official high and low records may vary slightly from our data, if they occured in-between our weather recording intervals... More about our weather records

Advertising

Montreal weather history for previous 24 hours

 ConditionsComfort  
Time TempWeatherWind HumidityBarometerVisibility
11:00 AM
Dec 18
32 °FLight snow. Ice fog.7 mph93%29.87 "Hg5 mi
10:00 AM32 °FLight snow. Ice fog.9 mph93%29.87 "Hg3 mi
9:00 AM32 °FLight snow. Ice fog.7 mph100%29.85 "Hg2 mi
8:00 AM32 °FLight snow. Ice fog.5 mph100%29.83 "Hg2 mi
7:00 AM32 °FLight snow. Ice fog.6 mph100%29.82 "Hg4 mi
6:56 AM32 °FLight snow. Ice fog.7 mph100%29.82 "Hg3 mi
6:00 AM32 °FLight snow. Ice fog.5 mph93%29.80 "Hg1 mi
5:00 AM32 °FLight snow. Ice fog.3 mph93%29.80 "Hg2 mi
4:00 AM32 °FLight snow. Ice fog.5 mph93%29.79 "Hg2 mi
3:48 AM32 °FLight snow. Ice fog.5 mph93%29.79 "Hg2 mi
3:00 AM32 °FLight snow. Ice fog.5 mph93%29.79 "Hg4 mi
2:00 AM32 °FLight snow. Ice fog.5 mph93%29.78 "Hg2 mi
1:47 AM32 °FLight snow. Ice fog.6 mph93%29.77 "Hg4 mi
1:00 AM32 °FLight snow. Ice fog.5 mph93%29.77 "Hg3 mi
12:00 AM32 °FLight snow. Ice fog.3 mph93%29.77 "Hg3 mi
11:00 PM
Dec 17
32 °FChilly.5 mph100%29.78 "Hg1 mi
10:00 PM32 °FLight snow. Ice fog.3 mph100%29.78 "Hg1 mi
9:00 PM32 °FLight snow. Ice fog.3 mph100%29.78 "Hg3 mi
8:00 PM32 °FLight snow. Ice fog.2 mph100%29.78 "Hg4 mi
7:00 PM32 °FLight snow. Ice fog.3 mph100%29.79 "Hg4 mi
6:00 PM32 °FLight snow. Ice fog.5 mph100%29.78 "Hg3 mi
5:00 PM32 °FDrizzle. Ice fog.5 mph100%29.78 "Hg2 mi
4:45 PM32 °FDrizzle. Ice fog.6 mph100%29.78 "Hg1 mi
4:00 PM32 °FDrizzle. Ice fog.6 mph100%29.77 "Hg1 mi
3:50 PM32 °FDrizzle. Ice fog.7 mph93%29.77 "Hg1 mi
3:00 PM32 °FLight rain. Ice fog.9 mph93%29.76 "Hg4 mi
2:00 PM32 °FLight rain. Ice fog.8 mph100%29.76 "Hg2 mi
1:50 PM32 °FChilly.8 mph100%29.76 "Hg1 mi
1:00 PM32 °FChilly.10 mph100%29.76 "Hg1 mi
12:00 PM32 °FDrizzle. Ice fog.8 mph93%29.78 "Hg1 mi
11:52 AM32 °FChilly.12 mph93%29.78 "Hg1 mi
11:00 AM32 °FChilly.10 mph93%29.80 "Hg1 mi
Weather by CustomWeather, © 2014

See weather overviewHow to use our weather pages